Extreme hitte van: 24-08-2019 09:00 tot: 26-08-2019 00:00 waarschuwing voor: Extreme hitte niveau: Geel info button

Weerstation Grootegast  Weerstation Grootegast


15 daagse weersverwachting Innsbruck (AT)

  • Overzicht
  • Per uur
  • 15 dagen
  • Extra
  • Vergelijk
  • Kaarten
  • Dagkaart
  • Meer »
  • Info
  • Statistieken
  • Directe link
    Temp 6h Neerslag Wind  
 06:24     20:10    Daglengte: 13:46 Vandaag
08:00
17°
 
1
14:00
26°
 
1
20:00
20°
2.5 mm
1
 06:25     20:08    Daglengte: 13:43 Morgen
02:00
15°
 
1
08:00
16°
 
1
14:00
26°
 
1
20:00
20°
7.3 mm
0
 06:27     20:06    Daglengte: 13:39 Maandag 26 Aug
02:00
16°
 
0
08:00
17°
 
1
14:00
26°
 
1
20:00
21°
34.8 mm
1
 06:28     20:04    Daglengte: 13:36 Dinsdag 27 Aug
02:00
17°
40.4 mm
1
Locatie info
Region: Tirol
Latitude: 47.2680°N
Longitude: 11.3913°E
587 masl
Postcode: 6020
Temp/Neerslag /Baro Onweer/Dauwpunt
    Temp Baro 1h Neerslag Dauwpunt Wind UV Bewolking  
 06:24     20:10    Daglengte: 13:46 Vandaag
06:00
15°
1022.9 hPa   13.6°
1
Windvlaag: -0.1 m/s
44%
07:00
15°
1022.8 hPa   13.7°
1
Windvlaag: -0.1 m/s
51%
08:00
17°
1022.9 hPa   14.9°
1
Windvlaag: -0.3 m/s
40%
09:00
19°
1022.6 hPa   16.2°
1
Windvlaag: -0.4 m/s
59%
10:00
21°
1022.2 hPa   16.4°
1
Windvlaag: -0.5 m/s
50%
11:00
23°
1021.5 hPa   15.7°
1
Windvlaag: -0.5 m/s
60%
12:00
25°
1020.5 hPa   14.8°
1
Windvlaag: 0.1 m/s
50%
13:00
26°
1019.9 hPa
15%
14.0°
1
Windvlaag: 0.6 m/s
39%
14:00
26°
1019.5 hPa
27%
14.7°
1
Windvlaag: 1 m/s
42%
15:00
25°
1019.8 hPa
41%
15.6°
1
Windvlaag: 1.2 m/s
48%
16:00
23°
1020.4 hPa 0.6 mm
82%
15.8°
1
Windvlaag: 1.6 m/s
61%
17:00
22°
1020.3 hPa 0.8 mm
82%
17.0°
1
Windvlaag: 1.7 m/s
79%
18:00
22°
1020.9 hPa 1.1 mm
81%
17.6°
1
Windvlaag: 1.4 m/s
81%
19:00
22°
1020.8 hPa
79%
18.0°
1
Windvlaag: 0.3 m/s
68%
20:00
20°
1020.8 hPa
75%
17.8°
1
Windvlaag: 0.6 m/s
76%
21:00
19°
1021.3 hPa
65%
17.4°
1
Windvlaag: 0.3 m/s
72%
22:00
18°
1021.3 hPa
20%
16.7°
1
Windvlaag: 0.2 m/s
44%
23:00
18°
1021.1 hPa
18%
16.2°
1
Windvlaag: 0 m/s
35%
 06:25     20:08    Daglengte: 13:43 Morgen
00:00
17°
1021.1 hPa
52%
15.5°
1
Windvlaag: 0.1 m/s
14%
01:00
16°
1021.2 hPa
14%
15.1°
1
Windvlaag: 0.4 m/s
30%
02:00
15°
1021.4 hPa
17%
14.4°
1
Windvlaag: 0.5 m/s
26%
03:00
15°
1021.4 hPa
15%
13.9°
1
Windvlaag: 0.6 m/s
31%
04:00
14°
1021.5 hPa
14%
13.5°
1
Windvlaag: 0.6 m/s
50%
05:00
14°
1021.6 hPa
14%
13.1°
1
Windvlaag: 0.1 m/s
46%
06:00
14°
1021.8 hPa
14%
12.6°
0
Windvlaag: -0.2 m/s
45%
07:00
14°
1022.1 hPa
14%
12.6°
1
Windvlaag: -0.2 m/s
36%
08:00
16°
1022.2 hPa
14%
14.1°
1
Windvlaag: -0.3 m/s
28%
09:00
19°
1022.1 hPa
14%
15.5°
0
Windvlaag: -0.2 m/s
22%
10:00
21°
1021.7 hPa
14%
15.7°
0
Windvlaag: 1 m/s
23%
11:00
23°
1021.0 hPa
25%
14.9°
1
Windvlaag: 1.5 m/s
24%
12:00
25°
1020.4 hPa
34%
13.8°
1
Windvlaag: 1.7 m/s
25%
13:00
26°
1019.6 hPa
38%
13.2°
1
Windvlaag: 1.9 m/s
25%
14:00
26°
1019.1 hPa
76%
13.4°
1
Windvlaag: 2.1 m/s
31%
15:00
25°
1019.4 hPa 0.8 mm
81%
14.7°
1
Windvlaag: 2 m/s
48%
16:00
24°
1019.8 hPa 0.6 mm
82%
16.0°
1
Windvlaag: 1.4 m/s
55% warningclass
17:00
23°
1020.1 hPa 1.1 mm
82%
17.3°
1
Windvlaag: 1.7 m/s
74% warningclass
18:00
21°
1020.9 hPa 4.8 mm
82%
17.0°
1
Windvlaag: 2 m/s
69%
19:00
20°
1021.3 hPa
80%
18.6°
1
Windvlaag: 1.1 m/s
69%
20:00
20°
1021.7 hPa
32%
17.0°
0
Windvlaag: 0.8 m/s
69%
21:00
19°
1022.0 hPa
24%
16.6°
0
Windvlaag: -0.2 m/s
73%
22:00
18°
1022.3 hPa
62%
16.4°
1
Windvlaag: -0.1 m/s
38%
23:00
18°
1021.9 hPa
73%
16.3°
0
Windvlaag: -0.3 m/s
16%
 06:27     20:06    Daglengte: 13:39 Maandag 26 Aug
00:00
17°
1021.8 hPa
24%
15.9°
1
Windvlaag: -0.1 m/s
11%
01:00
17°
1021.7 hPa
21%
15.6°
0
Windvlaag: -0.4 m/s
49%
02:00
16°
1021.6 hPa
21%
15.0°
0
Windvlaag: -0.1 m/s
47%
03:00
16°
1021.6 hPa
21%
14.6°
1
Windvlaag: -0.2 m/s
45%
04:00
16°
1021.6 hPa
21%
14.4°
0
Windvlaag: -0.2 m/s
53%
05:00
15°
1021.5 hPa
21%
14.1°
1
Windvlaag: -0.3 m/s
55%
06:00
15°
1021.6 hPa
21%
13.7°
0
Windvlaag: -0.3 m/s
57%
07:00
15°
1021.9 hPa
21%
13.4°
1
Windvlaag: -0.4 m/s
57%
08:00
17°
1021.9 hPa
21%
14.1°
1
Windvlaag: -0.3 m/s
57%
09:00
19°
1021.4 hPa
22%
15.3°
0
Windvlaag: 0.2 m/s
21%
10:00
21°
1020.9 hPa
21%
15.6°
0
Windvlaag: 0.2 m/s
8%
11:00
23°
1020.3 hPa
22%
15.7°
0
Windvlaag: 0.1 m/s
7%
12:00
25°
1019.6 hPa
79%
15.3°
1
Windvlaag: 0.2 m/s
12%
13:00
26°
1018.6 hPa
43%
14.9°
1
Windvlaag: 0.3 m/s
27%
14:00
26°
1018.4 hPa
50%
15.1°
1
Windvlaag: 0.5 m/s
42%
15:00
25°
1018.2 hPa 13.2 mm
56%
16.7°
1
Windvlaag: 0.6 m/s
47% warningclass
16:00
24°
1018.1 hPa
100%
16.9°
1
Windvlaag: 0.6 m/s
63%
17:00
24°
1018.5 hPa 8.2 mm
100%
17.7°
2
Windvlaag: 0.3 m/s
59% warningclass
18:00
23°
1018.5 hPa 13.5 mm
100%
18.5°
1
Windvlaag: 0.7 m/s
61%
19:00
22°
1018.6 hPa
95%
20.1°
1
Windvlaag: 0.8 m/s
45%
20:00
21°
1018.6 hPa
93%
18.4°
1
Windvlaag: 0.3 m/s
40%
21:00
21°
1018.8 hPa 13.5 mm
81%
18.0°
1
Windvlaag: 1 m/s
45%
22:00
20°
1019.0 hPa 13.5 mm
75%
17.5°
1
Windvlaag: 0.8 m/s
35%
23:00
19°
1019.1 hPa 13.5 mm
65%
17.1°
1
Windvlaag: 3.3 m/s
26%
 06:28     20:04    Daglengte: 13:36 Dinsdag 27 Aug
00:00
18°
1019.1 hPa
67%
16.7°
1
Windvlaag: 2.4 m/s
35%
01:00
18°
1019.0 hPa
21%
16.2°
1
Windvlaag: 2.4 m/s
35%
02:00
17°
1019.0 hPa
21%
15.8°
1
Windvlaag: 0.7 m/s
32%
03:00
17°
1019.2 hPa 40.1 mm
100%
16.0°
1
Windvlaag: 5.8 m/s
55%
04:00
17°
1019.2 hPa 40.1 mm
100%
15.7°
1
Windvlaag: 6 m/s
55%
05:00
17°
1019.4 hPa 40.1 mm
100%
15.6°
1
Windvlaag: 4.2 m/s
60%
Temp/Neerslag /Baro Onweer/Dauwpunt
    Temp Baro Neerslag Dauwpunt Wind Bewolking  
 06:24     20:10    Daglengte: 13:46 Vandaag
08:00
17°
1022.9 hPa   14.9°
1
40%
11:00
23°
1021.5 hPa   15.7°
1
60%
14:00
26°
1019.5 hPa   14.7°
1
42%
17:00
22°
1020.3 hPa 1.4 mm 17.0°
1
79%
20:00
20°
1020.8 hPa 1.1 mm 17.8°
1
76%
23:00
18°
1021.1 hPa   16.2°
1
35%
 06:25     20:08    Daglengte: 13:43 Morgen
02:00
15°
1021.4 hPa   14.4°
1
26%
05:00
14°
1021.6 hPa   13.1°
1
46%
08:00
16°
1022.2 hPa   14.1°
1
28%
11:00
23°
1021.0 hPa   14.9°
1
24%
14:00
26°
1019.1 hPa   13.4°
1
31%
17:00
23°
1020.1 hPa 2.5 mm 17.3°
1
74% warningclass
20:00
20°
1021.7 hPa 4.8 mm 17.0°
0
69%
23:00
18°
1021.9 hPa   16.3°
0
16%
 06:27     20:06    Daglengte: 13:39 Maandag 26 Aug
02:00
16°
1021.6 hPa   15.0°
0
47%
05:00
15°
1021.5 hPa   14.1°
1
55%
08:00
17°
1021.9 hPa   14.1°
1
57%
11:00
23°
1020.3 hPa   15.7°
0
7%
14:00
26°
1018.4 hPa   15.1°
1
42%
17:00
24°
1018.5 hPa 21.3 mm 17.7°
2
59% warningclass
20:00
21°
1018.6 hPa 13.5 mm 18.4°
1
40%
23:00
19°
1019.1 hPa 40.4 mm 17.1°
1
26%
 06:28     20:04    Daglengte: 13:36 Dinsdag 27 Aug
02:00
17°
1019.0 hPa   15.8°
1
32%
05:00
17°
1019.4 hPa 120.4 mm 15.6°
1
60%
08:00
18°
1019.8 hPa 120.4 mm 15.6°
1
58%
11:00
25°
1017.5 hPa 30.4 mm 16.4°
1
37%
14:00
28°
Voelt als: 28.4°
1016.2 hPa 30.5 mm 14.8°
1
24%
17:00
26°
1016.0 hPa 30.9 mm 16.3°
1
28%
20:00
24°
1016.1 hPa 32.5 mm 17.6°
0
32%
23:00
21°
1017.2 hPa 35.2 mm 16.2°
1
24%
 06:29     20:02    Daglengte: 13:33 Woensdag 28 Aug
02:00
18°
1018.1 hPa 35.2 mm 14.7°
1
15%
05:00
18°
1018.3 hPa 35.2 mm 15.0°
1
9%
08:00
18°
1018.5 hPa 35.2 mm 15.4°
1
3%
11:00
23°
1016.8 hPa 35.4 mm 16.2°
1
27%
14:00
28°
1015.0 hPa 37.4 mm 15.3°
1
51%
17:00
26°
1015.4 hPa 42.0 mm 15.6°
1
56%
20:00
23°
1015.9 hPa 45.1 mm 15.2°
1
62%
23:00
20°
1016.8 hPa 45.8 mm 15.0°
1
38%
 06:31     20:00    Daglengte: 13:29 Donderdag 29 Aug
02:00
17°
1017.6 hPa 45.8 mm 14.2°
0
14%
05:00
17°
1018.5 hPa 45.8 mm 14.4°
0
47%
08:00
17°
1019.5 hPa 45.8 mm 14.8°
0
79%
11:00
22°
1017.9 hPa 46.6 mm 15.6°
0
77%
14:00
27°
1016.3 hPa 51.1 mm 15.1°
1
76%
17:00
24°
1017.9 hPa 55.3 mm 17.8°
1
77%
20:00
20°
1019.7 hPa 58.4 mm 18.5°
1
78%
23:00
19°
1020.5 hPa 59.9 mm 17.6°
1
83%
 06:32     19:59    Daglengte: 13:27 Vrijdag 30 Aug
02:00
17°
1021.2 hPa 60.0 mm 16.8°
1
88%
05:00
17°
1021.8 hPa 60.1 mm 16.7°
1
88%
08:00
18°
1022.4 hPa 60.1 mm 16.8°
1
88%
11:00
20°
1022.2 hPa 60.6 mm 17.5°
1
89%
14:00
21°
1021.9 hPa 63.5 mm 17.9°
1
90%
17:00
20°
1022.0 hPa 65.6 mm 18.3°
1
90%
20:00
19°
1022.2 hPa 66.7 mm 18.4°
1
90%
23:00
18°
1022.4 hPa 66.9 mm 17.7°
0
82%
 06:33     19:57    Daglengte: 13:24 Zaterdag 31 Aug
02:00
18°
1022.4 hPa 66.9 mm 17.0°
0
75%
05:00
17°
1022.1 hPa   16.4°
0
77%
08:00
16°
1021.9 hPa 133.9 mm 16.1°
1
80%
14:00
28°
1017.0 hPa 134.9 mm 15.4°
2
50%
20:00
23°
1017.6 hPa 142.9 mm 20.1°
0
87%
 06:35     19:55    Daglengte: 13:20 Zondag 01 Sep
02:00
17°
1018.2 hPa 149.1 mm 15.9°
1
62%
08:00
17°
1019.1 hPa 149.1 mm 15.4°
1
77%
14:00
28°
Voelt als: 27.8°
1016.4 hPa 150.5 mm 14.2°
0
56%
20:00
21°
1019.5 hPa 162.8 mm 20.3°
1
89%
 06:36     19:53    Daglengte: 13:17 Maandag 02 Sep
02:00
16°
1021.0 hPa 167.8 mm 15.7°
1
62%
08:00
17°
1022.1 hPa 167.8 mm 16.4°
1
86%
14:00
27°
1019.3 hPa 168.0 mm 15.2°
0
49%
20:00
21°
1016.9 hPa 169.4 mm 13.6°
2
0%
 06:37     19:51    Daglengte: 13:14 Dinsdag 03 Sep
02:00
15°
1017.3 hPa 3.3 mm 14.5°
0
65%
08:00
15°
1017.2 hPa 3.1 mm 14.5°
0
62%
14:00
20°
1015.9 hPa 4.1 mm 16.5°
1
63%
20:00
16°
1016.3 hPa 6.2 mm 14.9°
1
75%
 06:39     19:49    Daglengte: 13:10 Woensdag 04 Sep
02:00
14°
1017.3 hPa 3.8 mm 13.4°
0
74%
08:00
14°
1017.3 hPa 2.3 mm 13.3°
0
71%
14:00
19°
1016.3 hPa 2.7 mm 15.3°
1
69%
20:00
15°
1017.1 hPa 3.9 mm 13.7°
1
74%
 06:40     19:47    Daglengte: 13:07 Donderdag 05 Sep
02:00
12°
1018.4 hPa 2.0 mm 11.9°
0
69%
08:00
13°
1018.5 hPa 1.9 mm 12.3°
0
66%
14:00
19°
1016.9 hPa 1.0 mm 14.0°
1
58%
20:00
14°
1017.6 hPa 3.2 mm 13.0°
1
57%
 06:41     19:45    Daglengte: 13:04 Vrijdag 06 Sep
02:00
11°
1019.0 hPa 2.8 mm 10.9°
0
56%
08:00
13°
1019.0 hPa 1.5 mm 11.5°
0
55%
14:00
19°
1017.2 hPa 1.3 mm 13.8°
2
55%
20:00
14°
1018.1 hPa 2.2 mm 12.7°
1
55%
 06:43     19:43    Daglengte: 13:00 Zaterdag 07 Sep
02:00
11°
1019.3 hPa 1.6 mm 10.5°
0
56%
08:00
13°
1019.2 hPa 0.8 mm 11.2°
0
49%
14:00
20°
1017.1 hPa 1.3 mm 14.3°
1
49%
20:00
14°
1017.8 hPa 2.1 mm 13.1°
1
50%
 06:44     19:41    Daglengte: 12:57 Zondag 08 Sep
02:00
12°
1019.0 hPa 0.9 mm 11.4°
1
53%
  CAPE Lifted Index Hail Supercell Tornado SRH 3km CL BTM PRES CL TOP PRES Swiss DWD icon SMHI TS
 06:24     20:10    Daglengte: 13:46 Vandaag
06:00 0 J/kg -0.2 K 0 % 0 % 0 % 0 m²/s² 0 0 0.61 3
07:00 0 J/kg -0.1 K 0 % 0 % 0 % 0 m²/s² 0 0 0.62 3
08:00 0 J/kg 0.1 K 0 % 0 % 0 % 0 m²/s² 0 0 0.91 3
09:00 24 J/kg -0.5 K 0 % 0 % 0 % 0 m²/s² 0 0 0.28 3
10:00 155 J/kg -1.4 K 0 % 0 % 0 % 0 m²/s² 0 0 -0.68 3
11:00 296 J/kg -2.2 K 0 % 0 % 0 % 0 m²/s² 0 0 -1.33 3
12:00 368 J/kg -2.5 K 0 % 0 % 0 % 0 m²/s² 0 0 -1.6 3
13:00 471 J/kg -2.8 K 0 % 0 % 0 % 0 m²/s² 0 0 -1.99 3
14:00 692 J/kg -3.2 K 0 % 0 % 0 % 0 m²/s² 0 0 -2.75 2
15:00 607 J/kg -2.8 K 0 % 0 % 0 % 0 m²/s² 0 0 -2.26 3
16:00 298 J/kg -2.1 K 0 % 0 % 0 % 0 m²/s² 0 0 -0.75 80
17:00 6 J/kg 0.3 K 0 % 0 % 0 % 0 m²/s² 0 0 2.25 80
18:00 44 J/kg -1.5 K 0 % 0 % 0 % 0 m²/s² 0 0 -0.72 80
19:00 156 J/kg -1.6 K 0 % 0 % 0 % 0 m²/s² 0 0 -1.06 3
20:00 2 J/kg -0.5 K 0 % 0 % 0 % 0 m²/s² 0 0 1.39 3
21:00 0 J/kg -1.5 K 0 % 0 % 0 % 0 m²/s² 0 0 -0.06 3
22:00 0 J/kg -1.1 K 0 % 0 % 0 % 0 m²/s² 0 0 -0.08 3
23:00 0 J/kg -0.8 K 0 % 0 % 0 % 0 m²/s² 0 0 0.22 2
 06:25     20:08    Daglengte: 13:43 Morgen
00:00 0 J/kg -1.7 K 0 % 0 % 0 % 0 m²/s² 0 0 -0.41 2
01:00 0 J/kg -0.1 K 0 % 0 % 0 % 0 m²/s² 0 0 1.28 1
02:00 0 J/kg -0.9 K 0 % 0 % 0 % 0 m²/s² 0 0 -0.09 1
03:00 0 J/kg -0.3 K 0 % 0 % 0 % 0 m²/s² 0 0 0.33 1
04:00 0 J/kg -0.7 K 0 % 0 % 0 % 0 m²/s² 0 0 0.02 1
05:00 0 J/kg -0.4 K 0 % 0 % 0 % 0 m²/s² 0 0 0.08 2
06:00 0 J/kg -0.2 K 0 % 0 % 0 % 0 m²/s² 0 0 0.01 2
07:00 0 J/kg 0.1 K 0 % 0 % 0 % 0 m²/s² 0 0 0.31 1
08:00 0 J/kg 0.0 K 0 % 0 % 0 % 0 m²/s² 0 0 0.39 0
09:00 1 J/kg 0.1 K 0 % 0 % 0 % 0 m²/s² 0 0 0.49 1
10:00 0 J/kg -0.6 K 0 % 0 % 0 % 0 m²/s² 0 0 0.33 1
11:00 96 J/kg -1.2 K 0 % 0 % 0 % 0 m²/s² 0 0 -0.12 1
12:00 298 J/kg -2.4 K 0 % 0 % 0 % 0 m²/s² 0 0 -1.38 1
13:00 501 J/kg -2.6 K 0 % 0 % 0 % 0 m²/s² 0 0 -1.67 1
14:00 547 J/kg -2.4 K 0 % 0 % 0 % 0 m²/s² 0 0 -1.47 3
15:00 858 J/kg -2.7 K 0 % 0 % 0 % 0 m²/s² 0 0 -1.41 3
16:00 1334 J/kg -4.5 K 0 % 0 % 0 % 0 m²/s² 0 0 -3.48 3
17:00 892 J/kg -4.1 K 0 % 0 % 0 % 0 m²/s² 0 0 -4.1 3
18:00 12 J/kg 0.4 K 0 % 0 % 0 % 0 m²/s² 0 0 0.79 3
19:00 1 J/kg 1.3 K 0 % 0 % 0 % 0 m²/s² 0 0 2.26 3
20:00 0 J/kg 0.7 K 0 % 0 % 0 % 0 m²/s² 0 0 1.51 3
21:00 0 J/kg 0.8 K 0 % 0 % 0 % 0 m²/s² 0 0 2.21 3
22:00 0 J/kg -0.2 K 0 % 0 % 0 % 0 m²/s² 0 0 1.3 3
23:00 0 J/kg -0.3 K 0 % 0 % 0 % 0 m²/s² 0 0 2.01 2
 06:27     20:06    Daglengte: 13:39 Maandag 26 Aug
00:00 0 J/kg -0.7 K 0 % 0 % 0 % 0 m²/s² 0 0 1.07 3
01:00 0 J/kg -0.8 K 0 % 0 % 0 % 0 m²/s² 0 0 0.55 1
02:00 0 J/kg -0.6 K 0 % 0 % 0 % 0 m²/s² 0 0 0.51 2
03:00 0 J/kg -0.5 K 0 % 0 % 0 % 0 m²/s² 0 0 0.58 3
04:00 0 J/kg -0.3 K 0 % 0 % 0 % 0 m²/s² 0 0 1.08 2
05:00 0 J/kg -0.2 K 0 % 0 % 0 % 0 m²/s² 0 0 1.09 2
06:00 0 J/kg -0.5 K 0 % 0 % 0 % 0 m²/s² 0 0 1.3 3
07:00 0 J/kg -0.1 K 0 % 0 % 0 % 0 m²/s² 0 0 1.64 2
08:00 0 J/kg 0.1 K 0 % 0 % 0 % 0 m²/s² 0 0 1.66 2
09:00 0 J/kg -0.2 K 0 % 0 % 0 % 0 m²/s² 0 0 1.36 0
10:00 3 J/kg -0.2 K 0 % 0 % 0 % 0 m²/s² 0 0 1.09 0
11:00 16 J/kg -0.2 K 0 % 0 % 0 % 0 m²/s² 0 0 0.52 0
12:00 62 J/kg -0.8 K 0 % 0 % 0 % 0 m²/s² 0 0 0.16 0
13:00 392 J/kg -2.1 K 0 % 0 % 0 % 0 m²/s² 0 0 -0.54 0
14:00 960 J/kg -3.7 K 0 % 0 % 0 % 0 m²/s² 0 0 -2.74 0
15:00 964 J/kg -3.5 K 0 % 0 % 0 % 0 m²/s² 0 0 -2.03 0
16:00 694 J/kg -2.9 K 0 % 0 % 0 % 0 m²/s² 0 0 -1.76 0
17:00 569 J/kg -3.1 K 0 % 0 % 0 % 0 m²/s² 0 0 -2.56 2
18:00 316 J/kg -1.5 K 0 % 0 % 0 % 0 m²/s² 0 0 -0.54 3
19:00 224 J/kg -1.9 K 0 % 0 % 0 % 0 m²/s² 0 0 -0.01 3
20:00 56 J/kg -1.1 K 0 % 0 % 0 % 0 m²/s² 0 0 1 3
21:00 0 J/kg -0.5 K 0 % 0 % 0 % 0 m²/s² 0 0 1.6 3
22:00 0 J/kg -0.4 K 0 % 0 % 0 % 0 m²/s² 0 0 1.22 2
23:00 0 J/kg -0.1 K 0 % 0 % 0 % 0 m²/s² 0 0 1.13 1
 06:28     20:04    Daglengte: 13:36 Dinsdag 27 Aug
00:00 0 J/kg 0.1 K 0 % 0 % 0 % 0 m²/s² 0 0 1.87 0
01:00 0 J/kg -0.2 K 0 % 0 % 0 % 0 m²/s² 0 0 2.11 0
02:00 0 J/kg 0.1 K 0 % 0 % 0 % 0 m²/s² 0 0 2.17 0
03:00 0 J/kg 0.5 K 0 % 0 % 0 % 0 m²/s² 0 0 2.45
04:00 0 J/kg 0.7 K 0 % 0 % 0 % 0 m²/s² 0 0 2.92
05:00 0 J/kg 0.6 K 0 % 0 % 0 % 0 m²/s² 0 0 2.67
Temp Baro Wind Neerslag
  EWN Forecast EWN WRFDA DWD ICON FMI HIRLAM MET Norway GFS
 06:24     20:10    Daglengte: 13:46 Vandaag
08:00 17.0° 1022.9 hPa 0.6 m/s 0.0 mm 20.6° 1020.8 hPa 1.5 m/s 0.0 mm 15.7° 1021.6 hPa 0.4 m/s 0.0 mm 17.3° 1024.6 hPa 0.3 m/s 0.0 mm 17.4° 1023.1 hPa 0.8 m/s 0.0 mm 18.5° 1021.8 hPa 0.9 m/s
11:00 23.0° 1021.5 hPa 0.6 m/s 0.0 mm 25.2° 1020.9 hPa 2.0 m/s 0.0 mm 20.4° 1021.2 hPa 0.5 m/s 0.0 mm 23.8° 1022.6 hPa 0.8 m/s 0.0 mm 24.4° 1021.2 hPa 0.1 m/s 0.0 mm 27.2° 1021.3 hPa 0.6 m/s
14:00 26.3° 1019.5 hPa 1.2 m/s 0.0 mm 26.6° 1019.6 hPa 4.6 m/s 0.1 mm 24.2° 1018.6 hPa 0.9 m/s 0.0 mm 30.1° 1020.6 hPa 0.9 m/s 0.0 mm 27.0° 1019.2 hPa 1.4 m/s 0.0 mm 29.3° 1019.7 hPa 1.9 m/s
17:00 22.2° 1020.3 hPa 1.3 m/s 1.4 mm 20.4° 1019.6 hPa 3.4 m/s 4.8 mm 20.7° 1019.4 hPa 0.8 m/s 1.5 mm 27.8° 1020.6 hPa 2.0 m/s 0.0 mm 23.0° 1021.2 hPa 0.2 m/s 0.4 mm 24.0° 1019.3 hPa 1.4 m/s
20:00 20.3° 1020.8 hPa 0.7 m/s 1.1 mm 19.6° 1020.0 hPa 2.4 m/s 8.8 mm 18.0° 1020.2 hPa 0.4 m/s 1.4 mm 22.4° 1022.2 hPa 0.9 m/s 0.0 mm 21.8° 1020.8 hPa 0.5 m/s 0.0 mm 18.9° 1019.5 hPa 1.4 m/s
23:00 17.5° 1021.1 hPa 0.8 m/s 0.0 mm 17.8° 1020.4 hPa 2.3 m/s 9.0 mm 16.4° 1020.2 hPa 0.7 m/s 0.1 mm 17.8° 1023.6 hPa 0.5 m/s 0.0 mm 19.0° 1020.9 hPa 0.7 m/s 0.0 mm 18.5° 1020.4 hPa 1.1 m/s
 06:25     20:08    Daglengte: 13:43 Morgen
02:00 15.4° 1021.4 hPa 0.9 m/s 0.0 mm 17.1° 1019.5 hPa 2.8 m/s 9.0 mm 15.2° 1020.1 hPa 0.8 m/s 0.0 mm 15.5° 1023.6 hPa 0.2 m/s 0.0 mm 15.7° 1021.6 hPa 0.9 m/s 0.0 mm 17.2° 1020.5 hPa 1.3 m/s
05:00 14.1° 1021.6 hPa 0.5 m/s 0.0 mm 17.9° 1018.6 hPa 0.6 m/s 9.0 mm 14.0° 1020.1 hPa 0.8 m/s 0.0 mm 13.7° 1024.2 hPa 0.1 m/s 0.0 mm 14.0° 1022.2 hPa 0.4 m/s 0.0 mm 16.1° 1020.1 hPa 1.2 m/s
08:00 16.0° 1022.2 hPa 0.6 m/s 0.0 mm 21.5° 1019.6 hPa 0.4 m/s 9.0 mm 15.1° 1021.1 hPa 0.7 m/s 0.0 mm 16.4° 1023.7 hPa 0.4 m/s 0.0 mm 16.0° 1022.7 hPa 0.6 m/s 0.0 mm 18.9° 1020.0 hPa 0.8 m/s
11:00 23.2° 1021.0 hPa 0.5 m/s 0.0 mm 25.2° 1019.6 hPa 1.4 m/s 9.0 mm 19.9° 1020.3 hPa 0.3 m/s 0.0 mm 25.5° 1020.9 hPa 0.5 m/s 0.0 mm 23.9° 1021.3 hPa 0.1 m/s 0.0 mm 26.2° 1019.5 hPa 0.9 m/s
14:00 26.1° 1019.1 hPa 1.0 m/s 0.0 mm 26.8° 1018.7 hPa 3.1 m/s 9.0 mm 23.4° 1018.1 hPa 0.8 m/s 0.0 mm 31.1° 1019.3 hPa 0.8 m/s 0.0 mm 26.6° 1019.0 hPa 0.4 m/s 0.0 mm 25.1° 1018.5 hPa 1.4 m/s
17:00 23.0° 1020.1 hPa 1.4 m/s 2.5 mm 23.0° 1018.7 hPa 1.9 m/s 10.3 mm 20.6° 1018.4 hPa 2.2 m/s 0.5 mm 26.9° 1020.3 hPa 1.7 m/s 0.0 mm 23.4° 1020.7 hPa 0.8 m/s 0.0 mm 23.9° 1018.2 hPa 1.3 m/s
20:00 19.8° 1021.7 hPa 0.5 m/s 4.8 mm 18.6° 1021.2 hPa 2.0 m/s 90.3 mm 17.9° 1020.4 hPa 0.6 m/s 0.2 mm 21.5° 1023.2 hPa 0.4 m/s 0.0 mm 21.7° 1021.7 hPa 0.3 m/s 0.0 mm 19.9° 1019.3 hPa 0.4 m/s
23:00 18.1° 1021.9 hPa 0.4 m/s 0.0 mm 19.7° 1019.1 hPa 1.3 m/s 114.4 mm 15.8° 1021.3 hPa 0.4 m/s 0.1 mm 18.9° 1022.2 hPa 0.2 m/s 0.0 mm 17.5° 1020.9 hPa 1.0 m/s
 06:27     20:06    Daglengte: 13:39 Maandag 26 Aug
02:00 16.1° 1021.6 hPa 0.5 m/s 0.0 mm 18.0° 1019.4 hPa 1.8 m/s 114.4 mm 14.5° 1020.6 hPa 0.3 m/s 0.0 mm 16.6° 1021.9 hPa 0.2 m/s 0.0 mm 16.2° 1020.7 hPa 1.0 m/s
05:00 15.4° 1021.5 hPa 0.7 m/s 0.0 mm 17.3° 1019.3 hPa 1.6 m/s 114.4 mm 13.8° 1020.5 hPa 0.7 m/s 0.0 mm 15.9° 1022.1 hPa 0.2 m/s 0.0 mm 15.7° 1020.4 hPa 1.1 m/s
08:00 16.8° 1021.9 hPa 0.5 m/s 0.0 mm 20.6° 1018.7 hPa 0.8 m/s 114.4 mm 15.3° 1021.2 hPa 0.5 m/s 0.0 mm 17.2° 1022.7 hPa 0.4 m/s 0.0 mm 18.5° 1019.8 hPa 0.7 m/s
11:00 23.4° 1020.3 hPa 0.4 m/s 0.0 mm 24.5° 1019.0 hPa 0.4 m/s 114.4 mm 19.6° 1020.2 hPa 0.4 m/s 0.0 mm 24.0° 1020.7 hPa 0.4 m/s 0.0 mm 26.6° 1018.9 hPa 0.9 m/s
14:00 26.1° 1018.4 hPa 0.9 m/s 0.0 mm 25.9° 1018.8 hPa 3.1 m/s 114.5 mm 23.2° 1017.9 hPa 0.7 m/s 0.0 mm 27.1° 1018.5 hPa 0.7 m/s 0.0 mm 29.4° 1017.9 hPa 1.5 m/s
17:00 24.4° 1018.5 hPa 1.5 m/s 21.3 mm 24.4° 1018.6 hPa 2.2 m/s 118.2 mm 22.4° 1017.4 hPa 1.7 m/s 0.2 mm 25.0° 1018.8 hPa 1.2 m/s 0.6 mm 26.2° 1017.0 hPa 1.8 m/s
20:00 21.3° 1018.6 hPa 0.8 m/s 13.5 mm 20.8° 1017.2 hPa 0.9 m/s 120.4 mm 18.6° 1018.6 hPa 1.3 m/s 0.3 mm 22.4° 1018.8 hPa 0.5 m/s 0.0 mm 20.3° 1017.9 hPa 0.3 m/s
23:00 19.1° 1019.1 hPa 0.7 m/s 40.4 mm 19.5° 1018.5 hPa 1.0 m/s 120.4 mm 16.1° 1019.8 hPa 0.5 m/s 0.4 mm 19.6° 1019.0 hPa 0.7 m/s 17.9° 1019.2 hPa 1.4 m/s
 06:28     20:04    Daglengte: 13:36 Dinsdag 27 Aug
02:00 16.7° 1019.0 hPa 1.1 m/s 0.0 mm 18.1° 1017.2 hPa 2.8 m/s 120.4 mm 15.0° 1019.0 hPa 0.9 m/s 0.0 mm 16.9° 1019.3 hPa 0.9 m/s 16.8° 1018.8 hPa 1.2 m/s
05:00 17.0° 1019.4 hPa 1.0 m/s 120.4 mm 17.0° 1017.3 hPa 2.3 m/s 120.4 mm 17.0° 1019.8 hPa 0.8 m/s 16.4° 1018.8 hPa 1.4 m/s
08:00 17.7° 1019.8 hPa 0.8 m/s 120.4 mm 21.4° 1017.7 hPa 2.0 m/s 120.4 mm 17.1° 1020.2 hPa 0.6 m/s 19.2° 1019.1 hPa 1.1 m/s
11:00 24.9° 1017.5 hPa 0.8 m/s 30.4 mm 24.6° 1017.5 hPa 0.8 m/s 28.3° 1018.2 hPa 0.8 m/s 30.4 mm
14:00 28.5° 1016.2 hPa 1.0 m/s 30.5 mm 28.3° 1016.1 hPa 0.9 m/s 30.3° 1017.4 hPa 1.8 m/s 30.5 mm
17:00 26.5° 1016.0 hPa 0.8 m/s 30.9 mm 26.4° 1016.0 hPa 0.7 m/s 28.1° 1016.5 hPa 1.9 m/s 30.9 mm
20:00 24.1° 1016.1 hPa 0.5 m/s 32.5 mm 24.4° 1015.9 hPa 0.5 m/s 20.6° 1017.8 hPa 0.4 m/s 32.5 mm
23:00 21.0° 1017.2 hPa 0.9 m/s 35.2 mm 21.3° 1017.0 hPa 0.9 m/s 18.2° 1019.4 hPa 1.3 m/s 35.2 mm
 06:29     20:02    Daglengte: 13:33 Woensdag 28 Aug
02:00 18.1° 1018.1 hPa 1.3 m/s 35.2 mm 18.2° 1018.0 hPa 1.3 m/s 17.4° 1019.2 hPa 1.3 m/s 35.2 mm
05:00 18.0° 1018.3 hPa 1.1 m/s 35.2 mm 18.1° 1018.2 hPa 1.1 m/s 16.7° 1019.0 hPa 1.2 m/s 35.2 mm
08:00 18.1° 1018.5 hPa 0.8 m/s 35.2 mm 18.0° 1018.4 hPa 0.8 m/s 19.2° 1019.0 hPa 1.1 m/s 35.2 mm
11:00 23.1° 1016.8 hPa 1.0 m/s 35.4 mm 22.8° 1016.6 hPa 1.1 m/s 26.8° 1017.9 hPa 1.0 m/s 35.4 mm
14:00 27.6° 1015.0 hPa 1.3 m/s 37.4 mm 27.5° 1014.9 hPa 1.3 m/s 28.6° 1016.4 hPa 1.6 m/s 37.4 mm
17:00 25.6° 1015.4 hPa 1.2 m/s 42.0 mm 25.6° 1015.3 hPa 1.2 m/s 24.8° 1015.9 hPa 1.4 m/s 42.0 mm
20:00 23.5° 1015.9 hPa 1.1 m/s 45.1 mm 23.8° 1015.8 hPa 1.1 m/s 19.7° 1016.5 hPa 0.8 m/s 45.1 mm
23:00 20.1° 1016.8 hPa 0.8 m/s 45.8 mm 20.3° 1016.7 hPa 0.8 m/s 17.9° 1017.8 hPa 0.8 m/s 45.8 mm
 06:31     20:00    Daglengte: 13:29 Donderdag 29 Aug
02:00 16.8° 1017.6 hPa 0.4 m/s 45.8 mm 16.8° 1017.6 hPa 0.4 m/s 17.3° 1017.4 hPa 1.0 m/s 45.8 mm
05:00 16.9° 1018.5 hPa 0.4 m/s 45.8 mm 16.9° 1018.7 hPa 0.3 m/s 16.5° 1017.1 hPa 1.2 m/s 45.8 mm
08:00 17.2° 1019.5 hPa 0.3 m/s 45.8 mm 17.0° 1019.7 hPa 0.2 m/s 18.8° 1017.1 hPa 0.9 m/s 45.8 mm
11:00 22.1° 1017.9 hPa 0.5 m/s 46.6 mm 21.9° 1018.0 hPa 0.4 m/s 24.4° 1016.7 hPa 1.0 m/s 46.6 mm
14:00 26.5° 1016.3 hPa 0.7 m/s 51.1 mm 26.7° 1016.3 hPa 0.7 m/s 24.8° 1015.7 hPa 1.2 m/s 51.1 mm
17:00 23.6° 1017.9 hPa 0.8 m/s 55.3 mm 23.5° 1018.1 hPa 0.7 m/s 24.1° 1015.5 hPa 1.3 m/s 55.3 mm
20:00 20.2° 1019.7 hPa 0.7 m/s 58.4 mm 20.3° 1020.0 hPa 0.7 m/s 19.4° 1016.5 hPa 0.7 m/s 58.4 mm
23:00 18.7° 1020.5 hPa 0.6 m/s 59.9 mm 18.8° 1020.8 hPa 0.6 m/s 17.5° 1017.6 hPa 1.1 m/s 59.9 mm
 06:32     19:59    Daglengte: 13:27 Vrijdag 30 Aug
02:00 17.2° 1021.2 hPa 0.5 m/s 60.0 mm 17.3° 1021.5 hPa 0.5 m/s 16.5° 1017.6 hPa 1.0 m/s 60.0 mm
05:00 17.3° 1021.8 hPa 0.6 m/s 60.1 mm 17.5° 1022.2 hPa 0.6 m/s 15.9° 1017.2 hPa 1.1 m/s 60.1 mm
08:00 17.7° 1022.4 hPa 0.6 m/s 60.1 mm 17.6° 1022.9 hPa 0.6 m/s 18.5° 1017.4 hPa 0.9 m/s 60.1 mm
11:00 19.8° 1022.2 hPa 0.6 m/s 60.6 mm 19.3° 1022.6 hPa 0.6 m/s 25.3° 1017.1 hPa 0.9 m/s 60.6 mm
14:00 21.5° 1021.9 hPa 0.7 m/s 63.5 mm 21.0° 1022.4 hPa 0.6 m/s 26.9° 1015.8 hPa 1.5 m/s 63.5 mm
17:00 20.4° 1022.0 hPa 0.7 m/s 65.6 mm 20.1° 1022.5 hPa 0.6 m/s 23.8° 1015.5 hPa 1.0 m/s 65.6 mm
20:00 19.2° 1022.2 hPa 0.8 m/s 66.7 mm 19.2° 1022.7 hPa 0.7 m/s 19.1° 1017.0 hPa 1.3 m/s 66.7 mm
23:00 18.5° 1022.4 hPa 0.4 m/s 66.9 mm 18.5° 1022.8 hPa 0.3 m/s 17.7° 1018.5 hPa 1.3 m/s 66.9 mm
 06:33     19:57    Daglengte: 13:24 Zaterdag 31 Aug
02:00 17.8° 1022.4 hPa 0.1 m/s 66.9 mm 17.9° 1022.8 hPa 0.0 m/s 16.7° 1018.4 hPa 1.2 m/s 66.9 mm
05:00 16.9° 1022.1 hPa 0.4 m/s 66.9 mm 17.0° 1022.5 hPa 0.3 m/s 16.0° 1018.1 hPa 1.0 m/s 66.9 mm
08:00 16.3° 1021.9 hPa 0.7 m/s 66.9 mm 16.1° 1022.2 hPa 0.7 m/s 18.5° 1019.0 hPa 1.0 m/s 66.9 mm
14:00 27.5° 1017.0 hPa 1.6 m/s 67.9 mm 27.4° 1016.9 hPa 1.6 m/s 29.1° 1017.6 hPa 1.7 m/s 67.9 mm
20:00 22.7° 1017.6 hPa 0.5 m/s 72.9 mm 23.0° 1017.5 hPa 0.4 m/s 19.4° 1019.1 hPa 1.4 m/s 72.9 mm
 06:35     19:55    Daglengte: 13:20 Zondag 01 Sep
02:00 16.8° 1018.2 hPa 1.1 m/s 74.6 mm 16.8° 1017.9 hPa 1.1 m/s 16.5° 1021.1 hPa 1.5 m/s 74.6 mm
08:00 16.9° 1019.1 hPa 0.6 m/s 74.6 mm 16.7° 1018.9 hPa 0.6 m/s 19.2° 1021.5 hPa 1.0 m/s 74.6 mm
14:00 27.9° 1016.4 hPa 0.2 m/s 75.9 mm 27.7° 1016.1 hPa 0.1 m/s 29.7° 1019.7 hPa 1.8 m/s 75.9 mm
20:00 20.9° 1019.5 hPa 0.7 m/s 83.7 mm 20.9° 1019.4 hPa 0.8 m/s 20.8° 1020.5 hPa 0.1 m/s 83.7 mm
 06:36     19:53    Daglengte: 13:17 Maandag 02 Sep
02:00 15.8° 1021.0 hPa 0.6 m/s 83.9 mm 15.7° 1021.0 hPa 0.5 m/s 16.8° 1021.5 hPa 1.6 m/s 83.9 mm
08:00 17.1° 1022.1 hPa 0.6 m/s 83.9 mm 16.9° 1022.2 hPa 0.5 m/s 19.1° 1020.5 hPa 1.7 m/s 83.9 mm
14:00 26.6° 1019.3 hPa 0.4 m/s 84.1 mm 26.2° 1019.5 hPa 0.3 m/s 30.6° 1017.3 hPa 1.3 m/s 84.1 mm
20:00 21.0° 1016.9 hPa 2.3 m/s 84.9 mm 21.0° 1016.9 hPa 2.3 m/s 84.9 mm
 06:37     19:51    Daglengte: 13:14 Dinsdag 03 Sep
02:00 15.0° 1017.3 hPa 0.4 m/s 3.3 mm
08:00 15.2° 1017.2 hPa 0.1 m/s 3.1 mm
14:00 20.4° 1015.9 hPa 1.0 m/s 4.1 mm
20:00 15.5° 1016.3 hPa 1.0 m/s 6.2 mm
 06:39     19:49    Daglengte: 13:10 Woensdag 04 Sep
02:00 13.9° 1017.3 hPa 0.3 m/s 3.8 mm
08:00 14.0° 1017.3 hPa 0.5 m/s 2.3 mm
14:00 18.6° 1016.3 hPa 1.4 m/s 2.7 mm
20:00 14.5° 1017.1 hPa 1.2 m/s 3.9 mm
 06:40     19:47    Daglengte: 13:07 Donderdag 05 Sep
02:00 12.3° 1018.4 hPa 0.2 m/s 2.0 mm
08:00 13.1° 1018.5 hPa 0.3 m/s 1.9 mm
14:00 19.1° 1016.9 hPa 1.4 m/s 1.0 mm
20:00 13.8° 1017.6 hPa 1.2 m/s 3.2 mm
 06:41     19:45    Daglengte: 13:04 Vrijdag 06 Sep
02:00 11.4° 1019.0 hPa 0.3 m/s 2.8 mm
08:00 12.5° 1019.0 hPa 0.4 m/s 1.5 mm
14:00 19.5° 1017.2 hPa 1.6 m/s 1.3 mm
20:00 13.5° 1018.1 hPa 1.2 m/s 2.2 mm
 06:43     19:43    Daglengte: 13:00 Zaterdag 07 Sep
02:00 11.1° 1019.3 hPa 0.4 m/s 1.6 mm
08:00 12.5° 1019.2 hPa 0.3 m/s 0.8 mm
14:00 20.1° 1017.1 hPa 1.3 m/s 1.3 mm
20:00 13.7° 1017.8 hPa 1.0 m/s 2.1 mm
 06:44     19:41    Daglengte: 12:57 Zondag 08 Sep
02:00 12.0° 1019.0 hPa 0.6 m/s 0.9 mm
FMI Hirlam - 7.5 km EWN WRFDA - 12 km DWD ICON - 7 km GFS - 25 km Basiskaart






























































Updatetijd (Europe/Amsterdam) Resolutie Lengte Stap
FMI Hirlam 01:00, 07:00, 13:00, 19:00 7.5 km 49h 1h
EWN WRFDA 04:00, 10:00, 16:00, 22:00 12 km 73h 1h
DWD ICON 23:45, 05:45, 11:45, 17:45 7 km 75h 1h
GFS 02:30, 08:30, 14:30, 20:30 25 km 237h 3h
30+ mm
25-30 mm
20-25 mm
15-20 mm
10-15 mm
6-10 mm
4-6 mm
2-4 mm
1-2 mm
0.5-1 mm
0.2-0.5 mm
0.1-0.2 mm
30+ mm
25-30 mm
20-25 mm
15-20 mm
10-15 mm
6-10 mm
4-6 mm
2-4 mm
1-2 mm
0.5-1 mm
0.2-0.5 mm
0.1-0.2 mm
Sneeuwval
Natte sneeuw
Hagel
Vorst
30+ mm
25-30 mm
20-25 mm
15-20 mm
10-15 mm
6-10 mm
4-6 mm
2-4 mm
1-2 mm
0.5-1 mm
0.2-0.5 mm
0.1-0.2 mm
Sneeuwval
Natte sneeuw
Hagel
Vorst
Onweer
50 mm
40 mm
30 mm
26 mm
22 mm
18 mm
14 mm
10 mm
9 mm
8 mm
7 mm
6 mm
5 mm
4.5 mm
4 mm
3.5 mm
3 mm
2.5 mm
2 mm
1.5 mm
1 mm
0.8 mm
0.6 mm
0.4 mm
0.2 mm
0.05 mm
35°
30°
25°
20°
15°
10°
-5°
-10°
-15°
-20°
-25°
-30°
-35°
33> m/s
29 m/s
25 m/s
21 m/s
17 m/s
14 m/s
11 m/s
8 m/s
5 m/s
3 m/s
0 m/s
2600 J/kg
2400 J/kg
2200 J/kg
2000 J/kg
1800 J/kg
1600 J/kg
1400 J/kg
1200 J/kg
1000 J/kg
800 J/kg
600 J/kg
400 J/kg
200 J/kg
70 dBZ
65 dBZ
60 dBZ
55 dBZ
50 dBZ
45 dBZ
40 dBZ
35 dBZ
30 dBZ
25 dBZ
20 dBZ
15 dBZ
10 dBZ
5 dBZ
-1 K
-2 K
-3 K
-4 K
-5 K
-6 K
-7 K
-8 K
-9 K
950 m²/s²
900 m²/s²
850 m²/s²
800 m²/s²
750 m²/s²
700 m²/s²
650 m²/s²
600 m²/s²
550 m²/s²
500 m²/s²
450 m²/s²
400 m²/s²
350 m²/s²
300 m²/s²
250 m²/s²
200 m²/s²
150 m²/s²
100 m²/s²
46 m/s
44 m/s
42 m/s
40 m/s
38 m/s
36 m/s
34 m/s
32 m/s
30 m/s
28 m/s
26 m/s
24 m/s
22 m/s
20 m/s
16 m/s
12 m/s
8 m/s
4 m/s
30 m/s
28 m/s
26 m/s
24 m/s
22 m/s
20 m/s
18 m/s